Hourly Weather Oqqurgan

Today, 7 August, Friday

Time Temperature Precipitation Wind Pressure Humidity
00:00 +30°C° 0 mm 1 mps 722 mmHg 29%
01:00 +29°C° 0 mm 1 mps 722 mmHg 30%
02:00 +28°C° 0 mm 2 mps 722 mmHg 31%
03:00 +28°C° 0 mm 1 mps 722 mmHg 32%
04:00 +28°C° 0 mm 1 mps 722 mmHg 32%
05:00 +27°C° 0 mm 1 mps 722 mmHg 33%
06:00 +30°C° 0 mm 2 mps 722 mmHg 29%
07:00 +32°C° 0 mm 2 mps 723 mmHg 26%
08:00 +35°C° 0 mm 2 mps 724 mmHg 22%
09:00 +37°C° 0 mm 3 mps 723 mmHg 20%
10:00 +39°C° 0 mm 3 mps 723 mmHg 18%
11:00 +42°C° 0 mm 3 mps 723 mmHg 16%
12:00 +43°C° 0 mm 3 mps 723 mmHg 15%
13:00 +43°C° 0 mm 2 mps 722 mmHg 14%
14:00 +46°C° 0 mm 2 mps 722 mmHg 12%
15:00 +46°C° 0 mm 3 mps 722 mmHg 12%
16:00 +47°C° 0 mm 4 mps 722 mmHg 12%
17:00 +47°C° 0 mm 5 mps 722 mmHg 11%
18:00 +43°C° 0 mm 4 mps 722 mmHg 14%
19:00 +40°C° 0 mm 4 mps 722 mmHg 18%
20:00 +36°C° 0 mm 3 mps 722 mmHg 21%
21:00 +35°C° 0 mm 3 mps 722 mmHg 23%
22:00 +32°C° 0 mm 2 mps 722 mmHg 25%
23:00 +31°C° 0 mm 2 mps 722 mmHg 27%

Tomorrow, 8 August, Saturday

Time Temperature Precipitation Wind Pressure Humidity
00:00 +30°C° 0 mm 2 mps 721 mmHg 28%
01:00 +30°C° 0 mm 2 mps 721 mmHg 29%
02:00 +29°C° 0 mm 2 mps 721 mmHg 31%
03:00 +29°C° 0 mm 2 mps 721 mmHg 31%
04:00 +28°C° 0 mm 2 mps 721 mmHg 31%
05:00 +28°C° 0 mm 2 mps 721 mmHg 32%
06:00 +30°C° 0 mm 2 mps 721 mmHg 29%
07:00 +33°C° 0 mm 3 mps 721 mmHg 26%
08:00 +35°C° 0 mm 3 mps 721 mmHg 23%
09:00 +37°C° 0 mm 3 mps 721 mmHg 20%
10:00 +39°C° 0 mm 3 mps 721 mmHg 18%
11:00 +42°C° 0 mm 3 mps 721 mmHg 16%
12:00 +44°C° 0 mm 3 mps 721 mmHg 14%
13:00 +45°C° 0 mm 4 mps 720 mmHg 13%
14:00 +47°C° 0 mm 4 mps 720 mmHg 11%
15:00 +47°C° 0 mm 5 mps 719 mmHg 12%
16:00 +46°C° 0 mm 5 mps 719 mmHg 13%
17:00 +46°C° 0 mm 6 mps 719 mmHg 13%
18:00 +42°C° 0 mm 6 mps 720 mmHg 17%
19:00 +39°C° 0 mm 6 mps 720 mmHg 20%
20:00 +35°C° 0 mm 5 mps 720 mmHg 23%
21:00 +34°C° 0 mm 5 mps 720 mmHg 26%
22:00 +33°C° 0 mm 4 mps 720 mmHg 29%
23:00 +30°C° 0 mm 3 mps 720 mmHg 31%

Day after tomorrow, 9 August, Sunday

Time Temperature Precipitation Wind Pressure Humidity
00:00 +30°C° 0 mm 3 mps 720 mmHg 33%
01:00 +29°C° 0 mm 2 mps 720 mmHg 36%
02:00 +28°C° 0 mm 2 mps 720 mmHg 38%
03:00 +27°C° 0 mm 2 mps 720 mmHg 39%
04:00 +27°C° 0 mm 2 mps 720 mmHg 40%
05:00 +26°C° 0 mm 2 mps 720 mmHg 41%
06:00 +28°C° 0 mm 2 mps 720 mmHg 37%
07:00 +30°C° 0 mm 3 mps 721 mmHg 32%
08:00 +33°C° 0 mm 3 mps 721 mmHg 28%
09:00 +35°C° 0 mm 3 mps 721 mmHg 25%
10:00 +37°C° 0 mm 2 mps 721 mmHg 22%
11:00 +39°C° 0 mm 2 mps 720 mmHg 19%
12:00 +40°C° 0 mm 3 mps 720 mmHg 18%
13:00 +42°C° 0 mm 3 mps 720 mmHg 17%
14:00 +43°C° 0 mm 3 mps 720 mmHg 15%
15:00 +43°C° 0 mm 4 mps 720 mmHg 16%
16:00 +43°C° 0 mm 5 mps 720 mmHg 16%
17:00 +42°C° 0 mm 6 mps 720 mmHg 16%
18:00 +39°C° 0.1 mm 5 mps 720 mmHg 21%
19:00 +35°C° 0.1 mm 4 mps 720 mmHg 26%
20:00 +33°C° 0.1 mm 3 mps 720 mmHg 30%
21:00 +30°C° 0 mm 3 mps 720 mmHg 33%
22:00 +29°C° 0 mm 2 mps 720 mmHg 35%
23:00 +28°C° 0 mm 2 mps 720 mmHg 38%

10 August, Monday

Time Temperature Precipitation Wind Pressure Humidity
00:00 +28°C° 0 mm 2 mps 720 mmHg 39%
01:00 +27°C° 0 mm 2 mps 720 mmHg 39%
02:00 +27°C° 0 mm 3 mps 720 mmHg 40%
03:00 +27°C° 0 mm 2 mps 720 mmHg 40%
04:00 +26°C° 0 mm 2 mps 720 mmHg 40%
05:00 +26°C° 0 mm 2 mps 720 mmHg 41%
06:00 +28°C° 0 mm 2 mps 720 mmHg 36%
07:00 +30°C° 0 mm 2 mps 720 mmHg 30%
08:00 +32°C° 0 mm 2 mps 720 mmHg 25%
09:00 +36°C° 0 mm 2 mps 720 mmHg 22%
10:00 +38°C° 0 mm 2 mps 720 mmHg 18%
11:00 +40°C° 0 mm 2 mps 720 mmHg 15%
12:00 +41°C° 0 mm 2 mps 720 mmHg 14%
13:00 +43°C° 0 mm 3 mps 720 mmHg 13%
14:00 +44°C° 0 mm 4 mps 720 mmHg 11%
15:00 +44°C° 0 mm 4 mps 720 mmHg 11%
16:00 +45°C° 0 mm 5 mps 720 mmHg 10%
17:00 +45°C° 0 mm 6 mps 720 mmHg 10%
18:00 +41°C° 0 mm 5 mps 720 mmHg 13%
19:00 +37°C° 0 mm 4 mps 720 mmHg 15%
20:00 +35°C° 0 mm 3 mps 720 mmHg 18%
21:00 +33°C° 0 mm 3 mps 720 mmHg 19%
22:00 +31°C° 0 mm 2 mps 720 mmHg 21%
23:00 +30°C° 0 mm 2 mps 719 mmHg 22%

11 August, Tuesday

Time Temperature Precipitation Wind Pressure Humidity
00:00 +29°C° 0 mm 2 mps 719 mmHg 23%
01:00 +28°C° 0 mm 2 mps 719 mmHg 25%
02:00 +27°C° 0 mm 1 mps 719 mmHg 27%
03:00 +27°C° 0 mm 1 mps 719 mmHg 28%
04:00 +26°C° 0 mm 1 mps 719 mmHg 29%
05:00 +26°C° 0 mm 1 mps 719 mmHg 30%
06:00 +28°C° 0 mm 2 mps 720 mmHg 26%
07:00 +30°C° 0 mm 2 mps 720 mmHg 23%
08:00 +33°C° 0 mm 3 mps 720 mmHg 19%
09:00 +36°C° 0 mm 3 mps 720 mmHg 17%
10:00 +38°C° 0 mm 2 mps 720 mmHg 14%
11:00 +41°C° 0 mm 2 mps 720 mmHg 12%
12:00 +43°C° 0 mm 3 mps 720 mmHg 11%
13:00 +44°C° 0 mm 4 mps 720 mmHg 10%
14:00 +45°C° 0 mm 4 mps 720 mmHg 9%
15:00 +46°C° 0 mm 5 mps 720 mmHg 9%
16:00 +45°C° 0 mm 5 mps 719 mmHg 9%
17:00 +45°C° 0 mm 6 mps 719 mmHg 10%
18:00 +41°C° 0 mm 6 mps 719 mmHg 12%
19:00 +39°C° 0 mm 5 mps 720 mmHg 15%
20:00 +35°C° 0 mm 5 mps 720 mmHg 18%
21:00 +34°C° 0 mm 4 mps 720 mmHg 20%
22:00 +33°C° 0 mm 3 mps 720 mmHg 22%
23:00 +31°C° 0 mm 2 mps 720 mmHg 23%

12 August, Wednesday

Time Temperature Precipitation Wind Pressure Humidity
00:00 +30°C° 0.1 mm 2 mps 720 mmHg 26%
01:00 +29°C° 0.1 mm 2 mps 720 mmHg 29%
02:00 +28°C° 0.1 mm 2 mps 720 mmHg 32%
03:00 +27°C° 0 mm 2 mps 720 mmHg 33%
04:00 +26°C° 0 mm 2 mps 720 mmHg 35%
05:00 +25°C° 0 mm 1 mps 720 mmHg 36%
06:00 +27°C° 0 mm 2 mps 721 mmHg 31%
07:00 +29°C° 0 mm 2 mps 721 mmHg 26%
08:00 +31°C° 0 mm 3 mps 721 mmHg 22%
09:00 +34°C° 0 mm 3 mps 721 mmHg 19%
10:00 +37°C° 0 mm 3 mps 721 mmHg 17%
11:00 +39°C° 0 mm 3 mps 721 mmHg 14%
12:00 +41°C° 0 mm 4 mps 721 mmHg 13%
13:00 +42°C° 0 mm 4 mps 721 mmHg 11%
14:00 +45°C° 0 mm 5 mps 721 mmHg 10%
15:00 +44°C° 0 mm 6 mps 721 mmHg 10%
16:00 +44°C° 0 mm 6 mps 721 mmHg 10%
17:00 +44°C° 0 mm 6 mps 720 mmHg 10%
18:00 +40°C° 0 mm 6 mps 721 mmHg 11%
19:00 +36°C° 0 mm 5 mps 721 mmHg 13%
20:00 +34°C° 0 mm 5 mps 721 mmHg 14%
21:00 +33°C° 0 mm 4 mps 721 mmHg 15%
22:00 +32°C° 0 mm 4 mps 721 mmHg 15%
23:00 +30°C° 0 mm 4 mps 721 mmHg 16%
Show more